Chillicothe, MO

4:22 PM CDT on September 24, 2017 (GMT -0500)
Chillicothe

Weather History for KCDJ - December, 2012

Change the Weather History Date:

Thursday, December 27, 2012

  Actual Average (KIRK) Record (KIRK)
Temperature  
Mean Temperature 20 °F -  
Max Temperature 30 °F 34 °F 69 °F (1946)
Min Temperature 9 °F 18 °F -9 °F (1925)
Degree Days  
Heating Degree Days 46    
Moisture  
Dew Point 18 °F    
Average Humidity 82    
Maximum Humidity 96    
Minimum Humidity 72    
Precipitation  
Precipitation 0.00 in - - ()
Sea Level Pressure  
Sea Level Pressure 30.16 in    
Wind  
Wind Speed 4 mph (East)    
Max Wind Speed 12 mph    
Max Gust Speed 18 mph    
Averages and records for this station are not official NWS values.
T = Trace of Precipitation, MM = Missing Value Source: NWS Daily Summary

Daily Weather History Graph

Daily Weather History Graph

Search for Another Location

Airport or City:

Trip Planner

Search our weather history database for the weather conditions in past years. The results will help you decide how hot, cold, wet, or windy it might be!

Date:

Astronomy

Dec. 27, 2012 Rise Set
Actual Time 7:34 AM CST 4:56 PM CST
Civil Twilight 7:04 AM CST 5:27 PM CST
Nautical Twilight 6:30 AM CST 6:01 PM CST
Astronomical Twilight 5:57 AM CST 6:34 PM CST
Moon 4:40 PM CST (12/27) 6:46 AM CST (12/27)
Length of Visible Light 10h 22m
Length of Day
9h 22m
Full, 100% of the Moon is Illuminated
Dec 27
Full
Dec 28
Full
Jan 4
Last Quarter
Jan 11
New
Jan 18
First Quarter

Hourly Weather History & Observations

Time (CST) Temp. Windchill Dew Point Humidity Pressure Visibility Wind Dir Wind Speed Gust Speed Precip Events Conditions
12:52 AM 15.1 °F 9.4 °F 12.0 °F 88% 30.25 in - North 3.5 mph - N/A   Unknown
1:52 AM 15.1 °F 9.4 °F 12.0 °F 88% 30.26 in - North 3.5 mph - N/A   Unknown
2:52 AM 14.0 °F 6.5 °F 10.9 °F 88% 30.26 in - North 4.6 mph - N/A   Unknown
3:52 AM 12.9 °F - 10.9 °F 92% 30.26 in - Calm Calm - N/A   Unknown
4:52 AM 9.0 °F - 8.1 °F 96% 30.26 in - Calm Calm - N/A   Unknown
5:52 AM 10.0 °F - 8.1 °F 92% 30.23 in - Calm Calm - N/A   Unknown
6:52 AM 12.0 °F - 10.0 °F 92% 30.25 in - Calm Calm - N/A   Unknown
7:52 AM 14.0 °F - 12.0 °F 92% 30.25 in - Calm Calm - N/A   Unknown
8:52 AM 19.9 °F 11.1 °F 17.1 °F 89% 30.23 in - ESE 6.9 mph - N/A   Unknown
9:52 AM 21.9 °F 13.4 °F 18.0 °F 85% 30.22 in - East 6.9 mph - N/A   Unknown
10:52 AM 25.0 °F 15.5 °F 19.9 °F 81% 30.21 in - ESE 9.2 mph - N/A   Unknown
11:52 AM 26.1 °F 17.6 °F 19.9 °F 78% 30.18 in - ESE 8.1 mph - N/A   Unknown
12:52 PM 27.0 °F 18.0 °F 21.0 °F 78% 30.14 in - SE 9.2 mph - N/A   Unknown
1:52 PM 28.9 °F 19.2 °F 21.9 °F 75% 30.08 in - ESE 11.5 mph 18.4 mph N/A   Unknown
2:52 PM 30.0 °F 21.1 °F 21.9 °F 72% 30.08 in - ESE 10.4 mph - N/A   Unknown
3:52 PM 30.0 °F 21.1 °F 21.9 °F 72% 30.06 in - ESE 10.4 mph - N/A   Unknown
4:52 PM 30.0 °F 23.2 °F 23.0 °F 75% 30.07 in - East 6.9 mph - N/A   Unknown
5:52 PM 28.9 °F 23.9 °F 21.9 °F 75% 30.08 in - ENE 4.6 mph - N/A   Unknown
6:52 PM 28.9 °F 22.8 °F 21.9 °F 75% 30.09 in - East 5.8 mph - N/A   Unknown
7:52 PM 28.9 °F 22.8 °F 21.9 °F 75% 30.07 in - East 5.8 mph - N/A   Unknown
8:52 PM 28.0 °F 20.8 °F 21.9 °F 78% 30.06 in - East 6.9 mph - N/A   Unknown
9:52 PM 28.0 °F 24.2 °F 21.9 °F 78% 30.06 in - NE 3.5 mph - N/A   Unknown
10:52 PM 27.0 °F 20.5 °F 21.0 °F 78% 30.07 in - East 5.8 mph - N/A   Unknown
11:52 PM 28.0 °F 24.2 °F 21.9 °F 78% 30.06 in - Variable 3.5 mph - N/A   Unknown